Find Starlink 11245

NORAD ID: 60925 Int'l Des: 2024-155 Owner: SPXS Country: US Constellation: starlink operational
LEOCIRCULAR

Current View

Loading 3D Globe...

About Starlink 11245

Starlink 11245 (NORAD 60925) is a starlink constellation satellite (v2 mini d2c) launched Aug 31, 2024 by SPXS of US. It operates in LEO, CIRCULAR orbit with a mass of 960.00 kg.

About Starlink 11245

Description loading...

Upcoming Passes

Passes for default location (London). Set your location on the main map for personalized predictions.

Altitude History

Loading altitude history...

Two-Line Element Set

1 60925U 24155B 26171.34911716 -.00000954 00000-0 -30208-5 0 9996
2 60925 53.1592 195.3667 0001115 80.5011 279.6133 15.69698693104524
Epoch: Jun 20, 2026 • Age: 46 hours

Current Status

Altitude 365.4 km
Velocity 7.70 km/s
Sub-Earth Point 52.29°N, 78.76°W
Launch Date Aug 31, 2024
Age 1.8 years
Type internet

Technical Details

Classification Payload
Mass 960.00 kg
Dry Mass 910.00 kg
Total Mass 960.00 kg
Length 0.30 m
Diameter 4.10 m
Span 29.00 m
Shape Box + pan
Manufacturer SPXS
Bus Type Starlink V2MD
Phase Status In Orbit
Owner/State SPXS/US

Most Searched